Terug naar catalogus

FENGYUN 1C DEB

LostSSO
NORAD 38790·DEBRIS·🇨🇳 China

Gelanceerd May 10, 1999 vanaf Taiyuan Satellite Launch Center

Loading…

Volgende Passages (komende 24 uur)

TLE

VerouderdSource: Space-Track

Epoch: Jul 28, 2024, 16:14 UTC

1 38790U 99025EUE 24210.67696591  .00005931  00000-0  26303-2 0  9994
2 38790  98.8548 292.1406 0075307 115.7980 245.0991 14.21909453732693

Volg FENGYUN 1C DEB in realtime met AllMySat

Download on the App Store